When you browse on this site, cookies collect data to enhance your experience and personalize the content and advertising you see.
Visit our Privacy Policy to learn more. By continuing to use the site, you agree to this use of cookies and data.
EN

Hourly Weather Alhos Vedros

Today, 13 August, Thursday

Time Temperature Precipitation Wind Pressure Humidity
00:00 +17°C° 0 mm 4 mps 760 mmHg 87%
01:00 +17°C° 0 mm 3 mps 760 mmHg 89%
02:00 +17°C° 0 mm 3 mps 760 mmHg 90%
03:00 +17°C° 0 mm 3 mps 760 mmHg 91%
04:00 +17°C° 0 mm 4 mps 760 mmHg 92%
05:00 +17°C° 0 mm 3 mps 760 mmHg 93%
06:00 +19°C° 0 mm 3 mps 760 mmHg 81%
07:00 +21°C° 0 mm 4 mps 760 mmHg 69%
08:00 +23°C° 0 mm 4 mps 760 mmHg 57%
09:00 +26°C° 0 mm 5 mps 760 mmHg 50%
10:00 +28°C° 0 mm 5 mps 760 mmHg 43%
11:00 +29°C° 0 mm 5 mps 760 mmHg 35%
12:00 +30°C° 0 mm 6 mps 760 mmHg 35%
13:00 +30°C° 0 mm 6 mps 759 mmHg 35%
14:00 +30°C° 0 mm 7 mps 759 mmHg 35%
15:00 +28°C° 0 mm 7 mps 759 mmHg 39%
16:00 +27°C° 0 mm 7 mps 759 mmHg 44%
17:00 +26°C° 0 mm 7 mps 759 mmHg 49%
18:00 +23°C° 0 mm 7 mps 760 mmHg 58%
19:00 +21°C° 0 mm 6 mps 760 mmHg 66%
20:00 +19°C° 0 mm 6 mps 760 mmHg 75%
21:00 +19°C° 0 mm 5 mps 760 mmHg 79%
22:00 +17°C° 0 mm 5 mps 760 mmHg 83%
23:00 +18°C° 0 mm 4 mps 761 mmHg 87%

Tomorrow, 14 August, Friday

Time Temperature Precipitation Wind Pressure Humidity
00:00 +17°C° 0 mm 4 mps 760 mmHg 89%
01:00 +17°C° 0 mm 4 mps 760 mmHg 90%
02:00 +17°C° 0 mm 4 mps 760 mmHg 92%
03:00 +17°C° 0 mm 4 mps 760 mmHg 92%
04:00 +17°C° 0 mm 4 mps 760 mmHg 93%
05:00 +17°C° 0 mm 4 mps 760 mmHg 93%
06:00 +19°C° 0 mm 4 mps 760 mmHg 82%
07:00 +21°C° 0 mm 4 mps 760 mmHg 72%
08:00 +23°C° 0 mm 5 mps 760 mmHg 61%
09:00 +25°C° 0 mm 5 mps 760 mmHg 55%
10:00 +27°C° 0 mm 5 mps 760 mmHg 50%
11:00 +29°C° 0 mm 5 mps 760 mmHg 44%
12:00 +29°C° 0 mm 6 mps 759 mmHg 44%
13:00 +29°C° 0 mm 6 mps 759 mmHg 44%
14:00 +29°C° 0 mm 7 mps 759 mmHg 44%
15:00 +28°C° 0 mm 7 mps 759 mmHg 48%
16:00 +26°C° 0 mm 7 mps 759 mmHg 53%
17:00 +24°C° 0 mm 7 mps 759 mmHg 57%
18:00 +22°C° 0 mm 6 mps 760 mmHg 66%
19:00 +20°C° 0 mm 5 mps 760 mmHg 75%
20:00 +19°C° 0 mm 4 mps 760 mmHg 84%
21:00 +18°C° 0 mm 4 mps 760 mmHg 86%
22:00 +18°C° 0 mm 3 mps 760 mmHg 89%
23:00 +17°C° 0 mm 3 mps 760 mmHg 91%

Day after tomorrow, 15 August, Saturday

Time Temperature Precipitation Wind Pressure Humidity
00:00 +17°C° 0 mm 3 mps 760 mmHg 91%
01:00 +17°C° 0 mm 3 mps 760 mmHg 92%
02:00 +17°C° 0 mm 3 mps 759 mmHg 92%
03:00 +17°C° 0 mm 3 mps 759 mmHg 93%
04:00 +17°C° 0 mm 3 mps 759 mmHg 93%
05:00 +17°C° 0 mm 3 mps 759 mmHg 93%
06:00 +19°C° 0 mm 3 mps 760 mmHg 82%
07:00 +21°C° 0 mm 3 mps 760 mmHg 71%
08:00 +24°C° 0 mm 3 mps 760 mmHg 60%
09:00 +25°C° 0 mm 4 mps 760 mmHg 54%
10:00 +27°C° 0 mm 4 mps 760 mmHg 48%
11:00 +28°C° 0 mm 5 mps 760 mmHg 41%
12:00 +28°C° 0 mm 5 mps 759 mmHg 41%
13:00 +28°C° 0 mm 6 mps 759 mmHg 41%
14:00 +28°C° 0 mm 6 mps 759 mmHg 41%
15:00 +27°C° 0 mm 6 mps 759 mmHg 45%
16:00 +26°C° 0 mm 6 mps 759 mmHg 49%
17:00 +24°C° 0 mm 6 mps 759 mmHg 53%
18:00 +22°C° 0 mm 5 mps 759 mmHg 62%
19:00 +20°C° 0 mm 5 mps 760 mmHg 71%
20:00 +19°C° 0 mm 4 mps 760 mmHg 80%
21:00 +18°C° 0 mm 4 mps 760 mmHg 84%
22:00 +18°C° 0 mm 3 mps 760 mmHg 87%
23:00 +17°C° 0 mm 3 mps 760 mmHg 90%

16 August, Sunday

Time Temperature Precipitation Wind Pressure Humidity
00:00 +17°C° 0 mm 3 mps 759 mmHg 90%
01:00 +17°C° 0 mm 3 mps 759 mmHg 90%
02:00 +17°C° 0 mm 3 mps 759 mmHg 91%
03:00 +17°C° 0 mm 3 mps 759 mmHg 91%
04:00 +17°C° 0 mm 3 mps 759 mmHg 92%
05:00 +17°C° 0 mm 3 mps 759 mmHg 92%
06:00 +19°C° 0 mm 3 mps 759 mmHg 81%
07:00 +21°C° 0 mm 3 mps 760 mmHg 69%
08:00 +24°C° 0 mm 3 mps 760 mmHg 58%
09:00 +25°C° 0 mm 4 mps 760 mmHg 53%
10:00 +27°C° 0 mm 5 mps 760 mmHg 47%
11:00 +28°C° 0 mm 5 mps 760 mmHg 42%
12:00 +28°C° 0 mm 6 mps 760 mmHg 43%
13:00 +28°C° 0 mm 6 mps 760 mmHg 44%
14:00 +28°C° 0 mm 7 mps 759 mmHg 44%
15:00 +27°C° 0 mm 7 mps 759 mmHg 48%
16:00 +26°C° 0 mm 7 mps 759 mmHg 52%
17:00 +24°C° 0 mm 7 mps 759 mmHg 55%
18:00 +22°C° 0 mm 6 mps 760 mmHg 64%
19:00 +21°C° 0 mm 5 mps 760 mmHg 72%
20:00 +19°C° 0 mm 4 mps 760 mmHg 81%
21:00 +19°C° 0 mm 4 mps 760 mmHg 84%
22:00 +18°C° 0 mm 4 mps 760 mmHg 87%
23:00 +18°C° 0 mm 4 mps 760 mmHg 90%

17 August, Monday

Time Temperature Precipitation Wind Pressure Humidity
00:00 +17°C° 0 mm 3 mps 760 mmHg 90%
01:00 +17°C° 0 mm 3 mps 760 mmHg 90%
02:00 +17°C° 0 mm 3 mps 760 mmHg 90%
03:00 +17°C° 0 mm 3 mps 760 mmHg 91%
04:00 +17°C° 0 mm 3 mps 760 mmHg 91%
05:00 +17°C° 0 mm 3 mps 760 mmHg 92%
06:00 +19°C° 0 mm 3 mps 760 mmHg 81%
07:00 +21°C° 0 mm 3 mps 760 mmHg 70%
08:00 +23°C° 0 mm 4 mps 761 mmHg 59%
09:00 +26°C° 0 mm 4 mps 760 mmHg 51%
10:00 +28°C° 0 mm 4 mps 760 mmHg 43%
11:00 +30°C° 0 mm 4 mps 760 mmHg 36%
12:00 +30°C° 0 mm 5 mps 760 mmHg 35%
13:00 +32°C° 0 mm 6 mps 759 mmHg 35%
14:00 +32°C° 0 mm 7 mps 759 mmHg 34%
15:00 +30°C° 0 mm 7 mps 759 mmHg 39%
16:00 +28°C° 0 mm 7 mps 759 mmHg 43%
17:00 +27°C° 0 mm 7 mps 759 mmHg 48%
18:00 +24°C° 0 mm 6 mps 760 mmHg 57%
19:00 +22°C° 0 mm 5 mps 760 mmHg 67%
20:00 +20°C° 0 mm 5 mps 760 mmHg 77%
21:00 +20°C° 0 mm 4 mps 760 mmHg 81%
22:00 +19°C° 0 mm 4 mps 760 mmHg 85%
23:00 +19°C° 0 mm 3 mps 760 mmHg 89%

18 August, Tuesday

Time Temperature Precipitation Wind Pressure Humidity
00:00 +19°C° 0 mm 3 mps 760 mmHg 90%
01:00 +19°C° 0 mm 3 mps 760 mmHg 91%
02:00 +18°C° 0 mm 2 mps 759 mmHg 92%
03:00 +18°C° 0 mm 2 mps 759 mmHg 93%
04:00 +18°C° 0 mm 2 mps 759 mmHg 94%
05:00 +18°C° 0 mm 2 mps 759 mmHg 94%
06:00 +21°C° 0 mm 3 mps 759 mmHg 84%
07:00 +24°C° 0 mm 3 mps 759 mmHg 74%
08:00 +26°C° 0 mm 4 mps 759 mmHg 64%
09:00 +28°C° 0 mm 4 mps 759 mmHg 56%
10:00 +30°C° 0 mm 5 mps 759 mmHg 49%
11:00 +33°C° 0 mm 5 mps 758 mmHg 41%
12:00 +33°C° 0 mm 6 mps 758 mmHg 40%
13:00 +33°C° 0 mm 7 mps 758 mmHg 39%
14:00 +33°C° 0 mm 7 mps 758 mmHg 39%
15:00 +32°C° 0 mm 7 mps 757 mmHg 43%
16:00 +29°C° 0 mm 7 mps 757 mmHg 48%
17:00 +28°C° 0 mm 7 mps 757 mmHg 52%
18:00 +26°C° 0 mm 6 mps 758 mmHg 64%
19:00 +23°C° 0 mm 5 mps 758 mmHg 75%
20:00 +21°C° 0 mm 4 mps 758 mmHg 86%
21:00 +20°C° 0 mm 4 mps 758 mmHg 89%
22:00 +20°C° 0 mm 3 mps 758 mmHg 92%
23:00 +20°C° 0 mm 3 mps 758 mmHg 95%
Show more